,,Stat6,,Stat2,,Stat8,,Stat9,,Stat10,,Wind1,,Wind1,
time,status,PA1M_AVG,status,PR1M_SUM,status,RH1M_AVG,status,SR1M_AVG,status,TA1M_AVG,status,W1dAve1m,status,W1sAve1m,
2009-03-05, 00:00:00,VALID,917.436,VALID,0,VALID,100,VALID,0,VALID,20.4991,VALID,247,VALID,0,
2009-03-05, 00:01:00,VALID,917.434,VALID,0,VALID,100,VALID,-0.0339617,VALID,20.5251,VALID,247,VALID,0,
2009-03-05, 00:02:00,VALID,917.413,VALID,0,VALID,100,VALID,-0.0339617,VALID,20.5056,VALID,270,VALID,0,
2009-03-05, 00:03:00,VALID,917.385,VALID,0,VALID,100,VALID,-0.0339617,VALID,20.4859,VALID,289,VALID,0.0792683,
2009-03-05, 00:04:00,VALID,917.366,VALID,0,VALID,100,VALID,-0.0509425,VALID,20.5283,VALID,7,VALID,0.0112645,
2009-03-05, 00:05:00,VALID,917.357,VALID,0,VALID,100,VALID,-0.0169808,VALID,20.5313,VALID,359,VALID,0,
2009-03-05, 00:06:00,VALID,917.359,VALID,0,VALID,100,VALID,0,VALID,20.5511,VALID,359,VALID,0,
2009-03-05, 00:07:00,VALID,917.371,VALID,0,VALID,100,VALID,0,VALID,20.5662,VALID,359,VALID,0,
2009-03-05, 00:08:00,VALID,917.381,VALID,0,VALID,100,VALID,-0.0339617,VALID,20.593,VALID,359,VALID,0,
2009-03-05, 00:09:00,VALID,917.408,VALID,0,VALID,100,VALID,0,VALID,20.6157,VALID,359,VALID,0,
2009-03-05, 00:10:00,VALID,917.427,VALID,0,VALID,100,VALID,0,VALID,20.5897,VALID,359,VALID,0,
2009-03-05, 00:11:00,VALID,917.423,VALID,0,VALID,100,VALID,-0.0339617,VALID,20.5505,VALID,359,VALID,0,
2009-03-05, 00:12:00,VALID,917.422,VALID,0,VALID,100,VALID,0,VALID,20.5346,VALID,359,VALID,0,
2009-03-05, 00:13:00,VALID,917.426,VALID,0,VALID,100,VALID,0,VALID,20.5148,VALID,359,VALID,0,
2009-03-05, 00:14:00,VALID,917.435,VALID,0.2,VALID,100,VALID,0,VALID,20.5705,VALID,359,VALID,0,
2009-03-05, 00:15:00,VALID,917.444,VALID,0,VALID,100,VALID,-0.0169808,VALID,20.5738,VALID,359,VALID,0,
2009-03-05, 00:16:00,VALID,917.449,VALID,0,VALID,100,VALID,0,VALID,20.5443,VALID,359,VALID,0,
2009-03-05, 00:17:00,VALID,917.447,VALID,0,VALID,100,VALID,-0.0169808,VALID,20.5443,VALID,359,VALID,0,
2009-03-05, 00:18:00,VALID,917.448,VALID,0,VALID,100,VALID,-0.0339617,VALID,20.5732,VALID,3,VALID,0,
2009-03-05, 00:19:00,VALID,917.446,VALID,0,VALID,100,VALID,-0.0339617,VALID,20.5473,VALID,18,VALID,0,
2009-03-05, 00:20:00,VALID,917.444,VALID,0.2,VALID,100,VALID,0,VALID,20.5181,VALID,4,VALID,0.0977431,
2009-03-05, 00:21:00,VALID,917.44,VALID,0,VALID,100,VALID,0,VALID,20.5051,VALID,8,VALID,0,
2009-03-05, 00:22:00,VALID,917.452,VALID,0,VALID,100,VALID,-0.0509425,VALID,20.5054,VALID,17,VALID,0,
2009-03-05, 00:23:00,VALID,917.445,VALID,0,VALID,100,VALID,-0.0339617,VALID,20.4851,VALID,16,VALID,0,
2009-03-05, 00:24:00,VALID,917.442,VALID,0,VALID,100,VALID,-0.0339617,VALID,20.5118,VALID,20,VALID,0.0456597,
2009-03-05, 00:25:00,VALID,917.418,VALID,0,VALID,100,VALID,-0.0339617,VALID,20.5183,VALID,41,VALID,0.0104802,
2009-03-05, 00:26:00,VALID,917.405,VALID,0,VALID,100,VALID,-0.0339617,VALID,20.5575,VALID,26,VALID,0,
2009-03-05, 00:27:00,VALID,917.39,VALID,0,VALID,100,VALID,0,VALID,20.5768,VALID,24,VALID,0,
2009-03-05, 00:28:00,VALID,917.369,VALID,0,VALID,100,VALID,-0.0169808,VALID,20.5603,VALID,24,VALID,0,
2009-03-05, 00:29:00,VALID,917.358,VALID,0,VALID,100,VALID,-0.0339617,VALID,20.5965,VALID,15,VALID,0,
2009-03-05, 00:30:00,VALID,917.343,VALID,0,VALID,100,VALID,-0.0679233,VALID,20.5575,VALID,245,VALID,0,
2009-03-05, 00:31:00,VALID,917.31,VALID,0,VALID,100,VALID,-0.0169808,VALID,20.5286,VALID,236,VALID,0,
2009-03-05, 00:32:00,VALID,917.294,VALID,0,VALID,100,VALID,-0.0339617,VALID,20.5083,VALID,235,VALID,0,
2009-03-05, 00:33:00,VALID,917.265,VALID,0,VALID,100,VALID,0,VALID,20.5153,VALID,235,VALID,0,
2009-03-05, 00:34:00,VALID,917.239,VALID,0,VALID,100,VALID,-0.0509425,VALID,20.5086,VALID,236,VALID,0,
2009-03-05, 00:35:00,VALID,917.223,VALID,0,VALID,100,VALID,-0.0509425,VALID,20.5059,VALID,246,VALID,0,
2009-03-05, 00:36:00,VALID,917.222,VALID,0,VALID,100,VALID,-0.0339617,VALID,20.5283,VALID,261,VALID,0,
2009-03-05, 00:37:00,VALID,917.214,VALID,0,VALID,100,VALID,0,VALID,20.5608,VALID,261,VALID,0,
2009-03-05, 00:38:00,VALID,917.192,VALID,0,VALID,100,VALID,-0.0339617,VALID,20.564,VALID,261,VALID,0,
2009-03-05, 00:39:00,VALID,917.182,VALID,0,VALID,100,VALID,-0.0509425,VALID,20.5546,VALID,261,VALID,0,
2009-03-05, 00:40:00,VALID,917.188,VALID,0,VALID,100,VALID,-0.0509425,VALID,20.5481,VALID,261,VALID,0,
2009-03-05, 00:41:00,VALID,917.185,VALID,0,VALID,100,VALID,-0.0339617,VALID,20.5346,VALID,261,VALID,0,
2009-03-05, 00:42:00,VALID,917.177,VALID,0,VALID,100,VALID,-0.0339617,VALID,20.5448,VALID,261,VALID,0,
2009-03-05, 00:43:00,VALID,917.193,VALID,0,VALID,100,VALID,-0.0169808,VALID,20.5475,VALID,261,VALID,0,
2009-03-05, 00:44:00,VALID,917.192,VALID,0,VALID,100,VALID,-0.0169808,VALID,20.5335,VALID,261,VALID,0,
2009-03-05, 00:45:00,VALID,917.163,VALID,0,VALID,100,VALID,0,VALID,20.5543,VALID,263,VALID,0,
2009-03-05, 00:46:00,VALID,917.159,VALID,0,VALID,100,VALID,0,VALID,20.564,VALID,293,VALID,0,
2009-03-05, 00:47:00,VALID,917.144,VALID,0,VALID,100,VALID,-0.0509425,VALID,20.567,VALID,26,VALID,0,
2009-03-05, 00:48:01,VALID,917.118,VALID,0,VALID,100,VALID,-0.0169808,VALID,20.5443,VALID,37,VALID,0,
2009-03-05, 00:49:00,VALID,917.094,VALID,0,VALID,100,VALID,-0.0169808,VALID,20.5573,VALID,32,VALID,0.0575945,
2009-03-05, 00:50:00,VALID,917.084,VALID,0,VALID,100,VALID,-0.0509425,VALID,20.5543,VALID,23,VALID,0.0912064,
2009-03-05, 00:51:00,VALID,917.063,VALID,0,VALID,100,VALID,-0.0169808,VALID,20.554,VALID,27,VALID,0,
2009-03-05, 00:52:00,VALID,917.048,VALID,0,VALID,100,VALID,-0.0169808,VALID,20.5738,VALID,28,VALID,0,
2009-03-05, 00:53:00,VALID,917.026,VALID,0,VALID,100,VALID,-0.0339617,VALID,20.5932,VALID,29,VALID,0,
2009-03-05, 00:54:00,VALID,917.026,VALID,0,VALID,100,VALID,-0.0509425,VALID,20.5922,VALID,29,VALID,0,
2009-03-05, 00:55:00,VALID,917.023,VALID,0,VALID,100,VALID,-0.0169808,VALID,20.6157,VALID,29,VALID,0,
2009-03-05, 00:56:00,VALID,917.026,VALID,0,VALID,100,VALID,-0.0339617,VALID,20.6317,VALID,29,VALID,0,
2009-03-05, 00:57:01,VALID,917.016,VALID,0,VALID,100,VALID,0,VALID,20.6289,VALID,29,VALID,0,
2009-03-05, 00:58:00,VALID,916.997,VALID,0,VALID,100,VALID,0,VALID,20.6119,VALID,29,VALID,0,
2009-03-05, 00:59:00,VALID,916.996,VALID,0,VALID,100,VALID,0,VALID,20.5603,VALID,27,VALID,0,
2009-03-05, 01:00:00,VALID,917.006,VALID,0,VALID,100,VALID,0,VALID,20.5797,VALID,27,VALID,0,
2009-03-05, 01:01:00,VALID,917.034,VALID,0,VALID,100,VALID,0,VALID,20.589,VALID,25,VALID,0,
2009-03-05, 01:02:01,VALID,917.038,VALID,0,VALID,100,VALID,0,VALID,20.5703,VALID,9,VALID,0,
2009-03-05, 01:03:01,VALID,917.015,VALID,0,VALID,100,VALID,0,VALID,20.5248,VALID,354,VALID,0,
2009-03-05, 01:04:01,VALID,917.003,VALID,0,VALID,100,VALID,-0.0169808,VALID,20.4989,VALID,354,VALID,0,
2009-03-05, 01:05:00,VALID,916.98,VALID,0,VALID,100,VALID,-0.0339617,VALID,20.5251,VALID,354,VALID,0,
2009-03-05, 01:06:00,VALID,916.955,VALID,0,VALID,100,VALID,0,VALID,20.5378,VALID,354,VALID,0,
2009-03-05, 01:07:00,VALID,916.942,VALID,0,VALID,100,VALID,-0.0169808,VALID,20.557,VALID,354,VALID,0,
2009-03-05, 01:08:00,VALID,916.95,VALID,0,VALID,100,VALID,-0.0849042,VALID,20.5353,VALID,354,VALID,0,
2009-03-05, 01:09:00,VALID,916.94,VALID,0,VALID,100,VALID,-0.101885,VALID,20.5329,VALID,354,VALID,0,
2009-03-05, 01:10:01,VALID,916.926,VALID,0,VALID,100,VALID,-0.152827,VALID,20.5037,VALID,300,VALID,0,
2009-03-05, 01:11:00,VALID,916.917,VALID,0,VALID,100,VALID,-0.101885,VALID,20.4747,VALID,258,VALID,0,
2009-03-05, 01:12:01,VALID,916.898,VALID,0,VALID,100,VALID,-0.118866,VALID,20.4487,VALID,258,VALID,0,
2009-03-05, 01:13:00,VALID,916.874,VALID,0,VALID,100,VALID,-0.135847,VALID,20.4323,VALID,258,VALID,0,
2009-03-05, 01:14:01,VALID,916.859,VALID,0,VALID,100,VALID,-0.101885,VALID,20.4577,VALID,327,VALID,0,
2009-03-05, 01:15:00,VALID,916.832,VALID,0,VALID,100,VALID,-0.101885,VALID,20.429,VALID,336,VALID,0,
2009-03-05, 01:16:00,VALID,916.809,VALID,0,VALID,100,VALID,-0.135847,VALID,20.426,VALID,336,VALID,0,
2009-03-05, 01:17:00,VALID,916.785,VALID,0,VALID,100,VALID,-0.118866,VALID,20.4382,VALID,336,VALID,0,
2009-03-05, 01:18:01,VALID,916.736,VALID,0,VALID,100,VALID,-0.118866,VALID,20.4512,VALID,349,VALID,0,
2009-03-05, 01:19:00,VALID,916.704,VALID,0,VALID,100,VALID,-0.135847,VALID,20.4807,VALID,21,VALID,0,
2009-03-05, 01:20:01,VALID,916.687,VALID,0,VALID,100,VALID,-0.101885,VALID,20.4907,VALID,24,VALID,0,
2009-03-05, 01:21:00,VALID,916.667,VALID,0,VALID,100,VALID,-0.101885,VALID,20.4547,VALID,20,VALID,0,
2009-03-05, 01:22:01,VALID,916.673,VALID,0,VALID,100,VALID,-0.101885,VALID,20.4352,VALID,356,VALID,0,
2009-03-05, 01:23:00,VALID,916.676,VALID,0,VALID,100,VALID,-0.0339617,VALID,20.4175,VALID,7,VALID,0,
2009-03-05, 01:24:00,VALID,916.69,VALID,0,VALID,100,VALID,0,VALID,20.394,VALID,28,VALID,0,
2009-03-05, 01:25:00,VALID,916.667,VALID,0,VALID,100,VALID,0.0169808,VALID,20.4237,VALID,23,VALID,0,
2009-03-05, 01:26:01,VALID,916.657,VALID,0,VALID,100,VALID,-0.0169808,VALID,20.4042,VALID,24,VALID,0,
2009-03-05, 01:27:01,VALID,916.647,VALID,0,VALID,100,VALID,-0.0169808,VALID,20.3718,VALID,22,VALID,0,
2009-03-05, 01:28:00,VALID,916.628,VALID,0,VALID,100,VALID,-0.0169808,VALID,20.3758,VALID,11,VALID,0,
2009-03-05, 01:29:00,VALID,916.619,VALID,0,VALID,100,VALID,-0.0169808,VALID,20.3693,VALID,18,VALID,0,
2009-03-05, 01:30:01,VALID,916.595,VALID,0,VALID,100,VALID,0,VALID,20.382,VALID,23,VALID,0,
2009-03-05, 01:31:00,VALID,916.573,VALID,0,VALID,100,VALID,0,VALID,20.3975,VALID,26,VALID,0,
2009-03-05, 01:32:00,VALID,916.551,VALID,0,VALID,100,VALID,0,VALID,20.4275,VALID,18,VALID,0,
2009-03-05, 01:33:00,VALID,916.529,VALID,0,VALID,100,VALID,-0.0169808,VALID,20.4207,VALID,25,VALID,0,
2009-03-05, 01:34:01,VALID,916.505,VALID,0,VALID,100,VALID,-0.0169808,VALID,20.4053,VALID,36,VALID,0.0483285,
2009-03-05, 01:35:01,VALID,916.5,VALID,0,VALID,100,VALID,-0.0169808,VALID,20.408,VALID,33,VALID,0,
2009-03-05, 01:36:00,VALID,916.488,VALID,0,VALID,100,VALID,-0.0169808,VALID,20.4012,VALID,33,VALID,0,
2009-03-05, 01:37:01,VALID,916.467,VALID,0,VALID,100,VALID,-0.0169808,VALID,20.3753,VALID,33,VALID,0.0636433,
2009-03-05, 01:38:01,VALID,916.436,VALID,0,VALID,100,VALID,-0.0849042,VALID,20.3928,VALID,23,VALID,0.00230824,
2009-03-05, 01:39:01,VALID,916.418,VALID,0,VALID,100,VALID,-0.135847,VALID,20.3608,VALID,17,VALID,0,
2009-03-05, 01:40:01,VALID,916.393,VALID,0,VALID,100,VALID,-0.101885,VALID,20.3216,VALID,16,VALID,0,
2009-03-05, 01:41:01,VALID,916.375,VALID,0,VALID,100,VALID,-0.135847,VALID,20.3222,VALID,16,VALID,0,
2009-03-05, 01:42:00,VALID,916.353,VALID,0,VALID,100,VALID,-0.135847,VALID,20.3414,VALID,15,VALID,0,
2009-03-05, 01:43:01,VALID,916.321,VALID,0,VALID,100,VALID,-0.118866,VALID,20.3414,VALID,20,VALID,0.0744141,
2009-03-05, 01:44:01,VALID,916.299,VALID,0,VALID,100,VALID,-0.101885,VALID,20.2989,VALID,10,VALID,0.205124,
2009-03-05, 01:45:01,VALID,916.276,VALID,0,VALID,100,VALID,-0.118866,VALID,20.2795,VALID,13,VALID,0.0703125,
2009-03-05, 01:46:01,VALID,916.239,VALID,0,VALID,100,VALID,-0.101885,VALID,20.2924,VALID,21,VALID,0.109766,
2009-03-05, 01:47:01,VALID,916.213,VALID,0,VALID,100,VALID,-0.101885,VALID,20.2402,VALID,23,VALID,0.307165,
2009-03-05, 01:48:01,VALID,916.183,VALID,0,VALID,100,VALID,-0.101885,VALID,20.2275,VALID,14,VALID,0.0806021,
2009-03-05, 01:49:01,VALID,916.164,VALID,0,VALID,100,VALID,-0.101885,VALID,20.2402,VALID,357,VALID,0.00223214,
2009-03-05, 01:50:00,VALID,916.138,VALID,0,VALID,100,VALID,-0.118866,VALID,20.2408,VALID,7,VALID,0.000195313,
2009-03-05, 01:51:00,VALID,916.119,VALID,0,VALID,100,VALID,-0.135847,VALID,20.2375,VALID,24,VALID,0.10119,
2009-03-05, 01:52:00,VALID,916.109,VALID,0,VALID,100,VALID,-0.135847,VALID,20.2602,VALID,18,VALID,0,
2009-03-05, 01:53:00,VALID,916.108,VALID,0,VALID,100,VALID,-0.0339617,VALID,20.2619,VALID,20,VALID,0,
2009-03-05, 01:54:00,VALID,916.12,VALID,0,VALID,100,VALID,0,VALID,20.2614,VALID,16,VALID,0,
2009-03-05, 01:55:00,VALID,916.127,VALID,0,VALID,100,VALID,-0.0169808,VALID,20.2387,VALID,16,VALID,0.0305233,
2009-03-05, 01:56:00,VALID,916.128,VALID,0,VALID,100,VALID,0,VALID,20.21,VALID,11,VALID,0.115091,
2009-03-05, 01:57:00,VALID,916.101,VALID,0,VALID,100,VALID,-0.0169808,VALID,20.1903,VALID,24,VALID,0.564024,
2009-03-05, 01:58:00,VALID,916.124,VALID,0,VALID,100,VALID,0,VALID,20.2033,VALID,21,VALID,0.108373,
2009-03-05, 01:59:00,VALID,916.124,VALID,0,VALID,100,VALID,0,VALID,20.2,VALID,350,VALID,0.154514,
2009-03-05, 02:00:00,VALID,916.122,VALID,0,VALID,100,VALID,-0.0169808,VALID,20.1711,VALID,316,VALID,0.0571646,
2009-03-05, 02:01:00,VALID,916.128,VALID,0,VALID,100,VALID,-0.0339617,VALID,20.1549,VALID,354,VALID,0,
2009-03-05, 02:02:00,VALID,916.106,VALID,0,VALID,100,VALID,-0.0509425,VALID,20.1451,VALID,349,VALID,0.0799419,
2009-03-05, 02:03:00,VALID,916.085,VALID,0,VALID,100,VALID,-0.0679233,VALID,20.1514,VALID,7,VALID,0,
2009-03-05, 02:04:00,VALID,916.073,VALID,0,VALID,100,VALID,-0.0169808,VALID,20.1446,VALID,345,VALID,0,
2009-03-05, 02:05:00,VALID,916.072,VALID,0,VALID,100,VALID,-0.0169808,VALID,20.1713,VALID,22,VALID,0,
2009-03-05, 02:06:00,VALID,916.082,VALID,0,VALID,100,VALID,-0.0169808,VALID,20.1908,VALID,9,VALID,0,
2009-03-05, 02:07:00,VALID,916.084,VALID,0,VALID,100,VALID,-0.0339617,VALID,20.21,VALID,9,VALID,0,
2009-03-05, 02:08:00,VALID,916.085,VALID,0,VALID,100,VALID,-0.0339617,VALID,20.2098,VALID,9,VALID,0,
2009-03-05, 02:09:00,VALID,916.096,VALID,0,VALID,100,VALID,-0.0339617,VALID,20.233,VALID,9,VALID,0,
2009-03-05, 02:10:00,VALID,916.094,VALID,0,VALID,100,VALID,-0.0509425,VALID,20.2525,VALID,9,VALID,0,
2009-03-05, 02:11:00,VALID,916.083,VALID,0,VALID,100,VALID,-0.0339617,VALID,20.2387,VALID,9,VALID,0,
2009-03-05, 02:12:00,VALID,916.07,VALID,0,VALID,100,VALID,-0.0169808,VALID,20.2163,VALID,10,VALID,0,
2009-03-05, 02:13:00,VALID,916.04,VALID,0,VALID,100,VALID,-0.0169808,VALID,20.213,VALID,30,VALID,0,
2009-03-05, 02:14:00,VALID,916.005,VALID,0,VALID,100,VALID,-0.0169808,VALID,20.233,VALID,38,VALID,0,
2009-03-05, 02:15:00,VALID,915.967,VALID,0,VALID,100,VALID,-0.0169808,VALID,20.249,VALID,37,VALID,0,
2009-03-05, 02:16:00,VALID,915.966,VALID,0,VALID,100,VALID,-0.0339617,VALID,20.2812,VALID,38,VALID,0,
2009-03-05, 02:17:00,VALID,915.958,VALID,0,VALID,100,VALID,-0.0339617,VALID,20.2941,VALID,38,VALID,0,
2009-03-05, 02:18:00,VALID,915.944,VALID,0,VALID,100,VALID,0,VALID,20.2395,VALID,37,VALID,0,
2009-03-05, 02:19:00,VALID,915.928,VALID,0,VALID,100,VALID,-0.0679233,VALID,20.1865,VALID,37,VALID,0,
2009-03-05, 02:20:00,VALID,915.919,VALID,0,VALID,100,VALID,-0.0169808,VALID,20.1873,VALID,37,VALID,0,
2009-03-05, 02:21:00,VALID,915.893,VALID,0,VALID,100,VALID,-0.0509425,VALID,20.1938,VALID,37,VALID,0,
2009-03-05, 02:22:00,VALID,915.879,VALID,0,VALID,100,VALID,-0.0169808,VALID,20.1968,VALID,37,VALID,0,
2009-03-05, 02:23:00,VALID,915.874,VALID,0,VALID,100,VALID,-0.0169808,VALID,20.1643,VALID,37,VALID,0,
2009-03-05, 02:24:00,VALID,915.862,VALID,0,VALID,100,VALID,-0.0169808,VALID,20.1738,VALID,37,VALID,0,
2009-03-05, 02:25:00,VALID,915.854,VALID,0,VALID,100,VALID,0,VALID,20.1995,VALID,37,VALID,0,
2009-03-05, 02:26:00,VALID,915.843,VALID,0,VALID,100,VALID,0,VALID,20.2157,VALID,37,VALID,0,
2009-03-05, 02:27:00,VALID,915.851,VALID,0,VALID,100,VALID,-0.0169808,VALID,20.2357,VALID,37,VALID,0,
2009-03-05, 02:28:00,VALID,915.851,VALID,0,VALID,100,VALID,-0.0339617,VALID,20.232,VALID,37,VALID,0,
2009-03-05, 02:29:00,VALID,915.853,VALID,0,VALID,100,VALID,-0.0169808,VALID,20.2579,VALID,37,VALID,0,
2009-03-05, 02:30:00,VALID,915.851,VALID,0,VALID,100,VALID,0,VALID,20.2582,VALID,37,VALID,0,
2009-03-05, 02:31:00,VALID,915.855,VALID,0,VALID,100,VALID,0.0169808,VALID,20.2614,VALID,37,VALID,0,
2009-03-05, 02:32:00,VALID,915.846,VALID,0,VALID,100,VALID,0.0339617,VALID,20.2522,VALID,37,VALID,0,
2009-03-05, 02:33:00,VALID,915.846,VALID,0,VALID,100,VALID,0,VALID,20.2155,VALID,37,VALID,0,
2009-03-05, 02:34:00,VALID,915.845,VALID,0,VALID,100,VALID,0.0169808,VALID,20.2125,VALID,37,VALID,0,
2009-03-05, 02:35:00,VALID,915.837,VALID,0,VALID,100,VALID,0,VALID,20.2152,VALID,37,VALID,0,
2009-03-05, 02:36:00,VALID,915.83,VALID,0,VALID,100,VALID,0.0509425,VALID,20.2087,VALID,37,VALID,0,
2009-03-05, 02:37:00,VALID,915.834,VALID,0,VALID,100,VALID,0.0339617,VALID,20.2055,VALID,37,VALID,0,
2009-03-05, 02:38:00,VALID,915.813,VALID,0,VALID,100,VALID,-0.0169808,VALID,20.2222,VALID,37,VALID,0,
2009-03-05, 02:39:00,VALID,915.802,VALID,0,VALID,100,VALID,0,VALID,20.225,VALID,37,VALID,0,
2009-03-05, 02:40:00,VALID,915.785,VALID,0,VALID,100,VALID,-0.0339617,VALID,20.2252,VALID,37,VALID,0,
2009-03-05, 02:41:00,VALID,915.756,VALID,0,VALID,100,VALID,0.0169808,VALID,20.1963,VALID,37,VALID,0,
2009-03-05, 02:42:00,VALID,915.734,VALID,0,VALID,100,VALID,0.0339617,VALID,20.2222,VALID,35,VALID,0,
2009-03-05, 02:43:00,VALID,915.701,VALID,0,VALID,100,VALID,0,VALID,20.2352,VALID,32,VALID,0,
2009-03-05, 02:44:00,VALID,915.673,VALID,0,VALID,100,VALID,0,VALID,20.2422,VALID,32,VALID,0,
2009-03-05, 02:45:00,VALID,915.658,VALID,0,VALID,100,VALID,-0.0169808,VALID,20.2287,VALID,31,VALID,0,
2009-03-05, 02:46:00,VALID,915.629,VALID,0,VALID,100,VALID,0,VALID,20.226,VALID,30,VALID,0,
2009-03-05, 02:47:00,VALID,915.605,VALID,0,VALID,100,VALID,-0.0169808,VALID,20.2068,VALID,29,VALID,0.00607639,
2009-03-05, 02:48:00,VALID,915.585,VALID,0,VALID,100,VALID,-0.0339617,VALID,20.1841,VALID,22,VALID,0,
2009-03-05, 02:49:00,VALID,915.566,VALID,0,VALID,100,VALID,-0.0169808,VALID,20.1841,VALID,8,VALID,0,
2009-03-05, 02:50:00,VALID,915.528,VALID,0,VALID,100,VALID,0,VALID,20.1708,VALID,14,VALID,0,
2009-03-05, 02:51:00,VALID,915.528,VALID,0,VALID,100,VALID,-0.0169808,VALID,20.1444,VALID,8,VALID,0,
2009-03-05, 02:52:00,VALID,915.513,VALID,0,VALID,100,VALID,0,VALID,20.1546,VALID,16,VALID,0,
2009-03-05, 02:53:00,VALID,915.508,VALID,0,VALID,100,VALID,-0.0339617,VALID,20.1643,VALID,16,VALID,0,
2009-03-05, 02:54:00,VALID,915.487,VALID,0,VALID,100,VALID,-0.0339617,VALID,20.1811,VALID,16,VALID,0,
2009-03-05, 02:55:00,VALID,915.482,VALID,0,VALID,100,VALID,-0.0169808,VALID,20.1543,VALID,16,VALID,0,
2009-03-05, 02:56:00,VALID,915.479,VALID,0,VALID,100,VALID,0,VALID,20.1449,VALID,16,VALID,0,
2009-03-05, 02:57:00,VALID,915.472,VALID,0,VALID,100,VALID,-0.0169808,VALID,20.1641,VALID,16,VALID,0,
2009-03-05, 02:58:00,VALID,915.452,VALID,0,VALID,100,VALID,0,VALID,20.1868,VALID,16,VALID,0,
2009-03-05, 02:59:00,VALID,915.433,VALID,0,VALID,100,VALID,0,VALID,20.2033,VALID,16,VALID,0,
2009-03-05, 03:00:00,VALID,915.414,VALID,0.2,VALID,100,VALID,-0.0339617,VALID,20.2095,VALID,16,VALID,0,
2009-03-05, 03:01:00,VALID,915.392,VALID,0,VALID,100,VALID,-0.0169808,VALID,20.2257,VALID,16,VALID,0,
2009-03-05, 03:02:00,VALID,915.379,VALID,0,VALID,100,VALID,0,VALID,20.2355,VALID,16,VALID,0,
2009-03-05, 03:03:00,VALID,915.344,VALID,0,VALID,100,VALID,-0.0509425,VALID,20.2427,VALID,16,VALID,0,
2009-03-05, 03:04:00,VALID,915.31,VALID,0,VALID,100,VALID,-0.0339617,VALID,20.2357,VALID,16,VALID,0,
2009-03-05, 03:05:00,VALID,915.274,VALID,0,VALID,100,VALID,-0.0339617,VALID,20.2555,VALID,16,VALID,0,
2009-03-05, 03:06:00,VALID,915.245,VALID,0,VALID,100,VALID,-0.0169808,VALID,20.2584,VALID,16,VALID,0,
2009-03-05, 03:07:00,VALID,915.197,VALID,0,VALID,100,VALID,-0.0509425,VALID,20.2422,VALID,16,VALID,0,
2009-03-05, 03:08:00,VALID,915.169,VALID,0,VALID,100,VALID,-0.0509425,VALID,20.2452,VALID,16,VALID,0,
2009-03-05, 03:09:00,VALID,915.138,VALID,0,VALID,100,VALID,0,VALID,20.2525,VALID,16,VALID,0,
2009-03-05, 03:10:00,VALID,915.092,VALID,0,VALID,100,VALID,-0.0169808,VALID,20.2355,VALID,16,VALID,0,
2009-03-05, 03:11:00,VALID,915.057,VALID,0,VALID,100,VALID,0,VALID,20.2549,VALID,16,VALID,0,
2009-03-05, 03:12:00,VALID,915.036,VALID,0,VALID,100,VALID,0,VALID,20.2479,VALID,16,VALID,0,
2009-03-05, 03:13:00,VALID,915.011,VALID,0,VALID,100,VALID,0,VALID,20.2163,VALID,16,VALID,0,
2009-03-05, 03:14:00,VALID,915.002,VALID,0,VALID,100,VALID,0,VALID,20.1895,VALID,16,VALID,0,
2009-03-05, 03:15:00,VALID,914.999,VALID,0,VALID,100,VALID,0.0169808,VALID,20.18,VALID,16,VALID,0,
2009-03-05, 03:16:00,VALID,914.985,VALID,0,VALID,100,VALID,0.0169808,VALID,20.186,VALID,16,VALID,0,
2009-03-05, 03:17:00,VALID,914.976,VALID,0,VALID,100,VALID,0,VALID,20.209,VALID,16,VALID,0,
2009-03-05, 03:18:00,VALID,914.989,VALID,0,VALID,100,VALID,0.0169808,VALID,20.219,VALID,16,VALID,0,
2009-03-05, 03:19:00,VALID,914.984,VALID,0,VALID,100,VALID,0.0169808,VALID,20.2122,VALID,16,VALID,0,
2009-03-05, 03:20:00,VALID,914.979,VALID,0,VALID,100,VALID,0,VALID,20.2087,VALID,16,VALID,0,
2009-03-05, 03:21:00,VALID,914.973,VALID,0,VALID,100,VALID,-0.0169808,VALID,20.196,VALID,16,VALID,0,
2009-03-05, 03:22:00,VALID,914.971,VALID,0,VALID,100,VALID,0.0169808,VALID,20.1865,VALID,16,VALID,0,
2009-03-05, 03:23:00,VALID,914.964,VALID,0,VALID,100,VALID,0,VALID,20.1965,VALID,16,VALID,0,
2009-03-05, 03:24:00,VALID,914.959,VALID,0,VALID,100,VALID,0.0169808,VALID,20.1933,VALID,16,VALID,0,
2009-03-05, 03:25:00,VALID,914.948,VALID,0,VALID,100,VALID,0.0339617,VALID,20.2125,VALID,16,VALID,0,
2009-03-05, 03:26:00,VALID,914.959,VALID,0,VALID,100,VALID,0,VALID,20.2322,VALID,16,VALID,0,
2009-03-05, 03:27:00,VALID,914.959,VALID,0,VALID,100,VALID,0.0509425,VALID,20.2482,VALID,16,VALID,0,
2009-03-05, 03:28:00,VALID,914.964,VALID,0,VALID,100,VALID,0,VALID,20.2552,VALID,16,VALID,0,
2009-03-05, 03:29:00,VALID,914.982,VALID,0,VALID,100,VALID,0.0509425,VALID,20.2255,VALID,16,VALID,0,
2009-03-05, 03:30:00,VALID,914.979,VALID,0,VALID,100,VALID,0.0169808,VALID,20.18,VALID,16,VALID,0,
2009-03-05, 03:31:00,VALID,914.977,VALID,0,VALID,100,VALID,0.0339617,VALID,20.219,VALID,16,VALID,0,
2009-03-05, 03:32:00,VALID,914.958,VALID,0,VALID,100,VALID,0.0339617,VALID,20.2442,VALID,16,VALID,0,
2009-03-05, 03:33:00,VALID,914.952,VALID,0,VALID,100,VALID,0,VALID,20.2514,VALID,16,VALID,0,
2009-03-05, 03:34:00,VALID,914.949,VALID,0,VALID,100,VALID,0,VALID,20.2617,VALID,16,VALID,0,
2009-03-05, 03:35:00,VALID,914.94,VALID,0,VALID,100,VALID,0.0509425,VALID,20.2769,VALID,16,VALID,0,
2009-03-05, 03:36:00,VALID,914.92,VALID,0,VALID,100,VALID,0,VALID,20.3104,VALID,16,VALID,0,
2009-03-05, 03:37:00,VALID,914.908,VALID,0,VALID,100,VALID,0,VALID,20.3266,VALID,16,VALID,0,
2009-03-05, 03:38:00,VALID,914.909,VALID,0,VALID,100,VALID,0.0169808,VALID,20.3001,VALID,16,VALID,0,
2009-03-05, 03:39:00,VALID,914.888,VALID,0,VALID,100,VALID,0,VALID,20.2901,VALID,16,VALID,0,
2009-03-05, 03:40:00,VALID,914.892,VALID,0,VALID,100,VALID,0,VALID,20.2674,VALID,16,VALID,0,
2009-03-05, 03:41:00,VALID,914.893,VALID,0,VALID,100,VALID,0,VALID,20.2287,VALID,16,VALID,0,
2009-03-05, 03:42:00,VALID,914.905,VALID,0,VALID,100,VALID,0.0339617,VALID,20.2125,VALID,16,VALID,0,
2009-03-05, 03:43:00,VALID,914.926,VALID,0,VALID,100,VALID,0.0509425,VALID,20.2152,VALID,16,VALID,0,
2009-03-05, 03:44:00,VALID,914.938,VALID,0,VALID,100,VALID,0.0679233,VALID,20.2315,VALID,16,VALID,0,
2009-03-05, 03:45:00,VALID,914.943,VALID,0,VALID,100,VALID,0.0339617,VALID,20.2642,VALID,17,VALID,0,
2009-03-05, 03:46:00,VALID,914.967,VALID,0,VALID,100,VALID,0,VALID,20.2674,VALID,17,VALID,0,
2009-03-05, 03:47:00,VALID,914.979,VALID,0,VALID,100,VALID,0.0339617,VALID,20.2512,VALID,17,VALID,0,
2009-03-05, 03:48:00,VALID,914.985,VALID,0,VALID,100,VALID,0,VALID,20.2549,VALID,17,VALID,0,
2009-03-05, 03:49:00,VALID,914.988,VALID,0,VALID,100,VALID,0.0339617,VALID,20.2447,VALID,17,VALID,0,
2009-03-05, 03:50:00,VALID,915,VALID,0,VALID,100,VALID,0,VALID,20.2479,VALID,17,VALID,0,
2009-03-05, 03:51:00,VALID,914.998,VALID,0,VALID,100,VALID,0.0169808,VALID,20.249,VALID,17,VALID,0,
2009-03-05, 03:52:00,VALID,915.016,VALID,0,VALID,100,VALID,-0.0169808,VALID,20.2317,VALID,17,VALID,0,
2009-03-05, 03:53:00,VALID,915.009,VALID,0,VALID,100,VALID,-0.0169808,VALID,20.2292,VALID,17,VALID,0,
2009-03-05, 03:54:00,VALID,915.019,VALID,0,VALID,100,VALID,-0.0849042,VALID,20.2367,VALID,17,VALID,0,